{"data":{"norad_id":51129,"intl_designator":"2022-005AB","name":"STARLINK-3396","alt_names":[],"object_type":"PAYLOAD","status":"ACTIVE","operator":null,"country":"US","launch_date":"2022-01-19","launch_site_code":"AFETR","launch_vehicle":null,"mission":null,"orbit_class":"UNKNOWN","rcs_meters":null,"size_class":null,"mass_kg":null,"dimensions":null,"purposes":["comms"],"wikipedia_slug":null,"has_3d_model":false,"image_url":null,"decayed_at":null,"tle_current":{"epoch":"2026-09-20T04:00:03.000096Z","epoch_age_seconds":77260,"freshness":"FRESH","line1":"1 51129U 22005AB  26263.16670139  .00033458  00000+0  99803-3 0  9993","line2":"2 51129  53.1602 139.2144 0001320  79.8823 178.3760 15.34366245  5820","mean_motion":15.34366245,"eccentricity":0.000132,"inclination_deg":53.1602,"raan_deg":139.2144,"arg_perigee_deg":79.8823,"mean_anomaly_deg":178.376,"bstar":0.00099803,"rev_number":582,"period_min":93.849822667338,"perigee_km":461.9005648648,"apogee_km":463.70657317503,"semimajor_km":6840.9405690199,"source":"CELESTRAK","updated_at":"2026-09-20T09:00:39.588737Z"}}}